Location: Absher
(46.5583°N, 107.9840°W)
Time: 13:39:18
(UTC+00:00)

STRAND 1 - Visible Passes

Search period start: 01 April 2023 00:00
Search period end: 11 April 2023 00:00
Orbit: 766 x 780 km, 98.4° (Epoch: 31 March)

Date Brightness Start Highest point End Pass type
(mag) Time Alt. Az. Time Alt. Az. Time Alt. Az.
01 Apr ? 03:32:09 10° NNW 03:35:52 21° WNW 03:39:34 10° WSW visible
01 Apr ? 11:33:38 10° E 11:36:57 18° ENE 11:40:14 10° NNE visible
02 Apr ? 02:57:05 10° N 03:01:46 38° WNW 03:06:25 10° SW visible
03 Apr ? 02:22:24 10° N 02:27:29 74° WNW 02:32:34 10° SSW visible
03 Apr ? 04:03:51 10° NNW 04:05:47 12° NW 04:07:41 10° WNW visible
03 Apr ? 12:02:34 10° ESE 12:06:57 30° ENE 12:11:20 10° N visible
04 Apr ? 03:27:59 10° NNW 03:31:50 22° WNW 03:35:41 10° WSW visible
04 Apr ? 11:29:49 10° E 11:32:55 16° ENE 11:36:01 10° NNE visible
05 Apr ? 02:52:57 10° N 02:57:42 41° WNW 03:02:26 10° SW visible
06 Apr ? 02:18:18 10° NNE 02:23:25 80° WNW 02:28:30 10° SSW visible
06 Apr ? 03:59:29 10° NNW 04:01:45 13° NW 04:04:01 10° W visible
06 Apr ? 11:58:38 10° ESE 12:02:54 28° ENE 12:07:11 10° N visible
07 Apr ? 03:23:47 10° N 03:27:47 24° WNW 03:31:46 10° WSW visible
07 Apr ? 11:26:00 10° E 11:28:53 15° ENE 11:31:45 10° NNE visible
08 Apr ? 02:48:49 10° N 02:53:38 44° WNW 02:58:26 10° SW visible
09 Apr ? 02:14:11 10° NNE 02:19:19 86° WNW 02:24:25 10° SSW visible
09 Apr ? 03:55:10 10° NNW 03:57:43 14° NW 04:00:16 10° W visible
09 Apr ? 11:54:41 10° ESE 11:58:50 26° ENE 12:03:00 10° N visible
10 Apr ? 03:19:36 10° N 03:23:43 25° WNW 03:27:50 10° WSW visible
10 Apr ? 11:22:13 10° E 11:24:50 14° NE 11:27:27 10° NNE visible
